Weather History for Alva, OK

Change the Weather History Date:

Tuesday, January 22, 2013

  Actual Average Record
Temperature  
Mean Temperature 36 °F -  
Max Temperature 53 °F 52 °F 82 °F (1967)
Min Temperature 19 °F 26 °F -1 °F (1966)
Degree Days  
Heating Degree Days 29    
Moisture  
Dew Point 19 °F    
Average Humidity 58    
Maximum Humidity 86    
Minimum Humidity 33    
Precipitation  
Precipitation 0.00 in - - ()
Sea Level Pressure  
Sea Level Pressure 30.19 in    
Wind  
Wind Speed 7 mph (ESE)    
Max Wind Speed 13 mph    
Max Gust Speed -    
Visibility 10 miles    
Events      
Averages and records for this station are not official NWS values.
T = Trace of Precipitation, MM = Missing Value Source: NWS Daily Summary

Daily Weather History Graph

Daily Weather History Graph

Search for Another Location

Airport:

Trip Planner

Search our weather history database for the weather conditions in past years. The results will help you decide how hot, cold, wet, or windy it might be!

Date:

Astronomy

Jan. 22, 2013 Rise Set
Actual Time 7:43 AM CST 5:49 PM CST
Civil Twilight 7:15 AM CST 6:17 PM CST
Nautical Twilight 6:44 AM CST 6:49 PM CST
Astronomical Twilight 6:13 AM CST 7:19 PM CST
Moon 2:14 PM CST (1/22) 4:05 AM CST (1/22)
Length of Visible Light 11h 02m
Length of Day
10h 06m
Waxing Gibbous, 83% of the Moon is Illuminated
Jan 22
Waxing Gibbous
Jan 26
Full
Feb 3
Last Quarter
Feb 10
New
Feb 17
First Quarter

Hourly Weather History & Observations

Time (CST) Temp. Windchill Dew Point Humidity Pressure Visibility Wind Dir Wind Speed Gust Speed Precip Events Conditions
12:10 AM 24.8 °F 16.9 °F 12.2 °F 59% 30.26 in 10.0 mi SE 6.9 mph - N/A   Scattered Clouds
12:30 AM 24.8 °F 16.1 °F 14.0 °F 64% 30.26 in 10.0 mi SE 8.1 mph - N/A   Partly Cloudy
12:50 AM 24.8 °F 16.1 °F 14.0 °F 64% 30.25 in 10.0 mi SE 8.1 mph - N/A   Partly Cloudy
1:10 AM 24.8 °F 16.1 °F 14.0 °F 64% 30.25 in 10.0 mi SSE 8.1 mph - N/A   Partly Cloudy
1:30 AM 24.8 °F 15.3 °F 14.0 °F 64% 30.24 in 10.0 mi SSE 9.2 mph - N/A   Partly Cloudy
1:50 AM 23.0 °F 14.7 °F 14.0 °F 68% 30.24 in 10.0 mi South 6.9 mph - N/A   Partly Cloudy
2:10 AM 23.0 °F 13.1 °F 14.0 °F 68% 30.23 in 10.0 mi SSE 9.2 mph - N/A   Clear
2:30 AM 23.0 °F 13.9 °F 14.0 °F 68% 30.23 in 10.0 mi South 8.1 mph - N/A   Clear
2:50 AM 23.0 °F 13.9 °F 14.0 °F 68% 30.23 in 10.0 mi South 8.1 mph - N/A   Partly Cloudy
3:10 AM 19.4 °F 9.5 °F 14.0 °F 80% 30.22 in 10.0 mi SSW 8.1 mph - N/A   Scattered Clouds
3:30 AM 21.2 °F 10.9 °F 14.0 °F 74% 30.22 in 10.0 mi South 9.2 mph - N/A   Scattered Clouds
3:50 AM 19.4 °F 10.4 °F 14.0 °F 80% 30.23 in 10.0 mi South 6.9 mph - N/A   Scattered Clouds
4:10 AM 21.2 °F 16.4 °F 14.0 °F 74% 30.23 in 10.0 mi South 3.5 mph - N/A   Scattered Clouds
4:30 AM 21.2 °F 12.6 °F 14.0 °F 74% 30.21 in 10.0 mi SSE 6.9 mph - N/A   Partly Cloudy
4:50 AM 23.0 °F 17.0 °F 14.0 °F 68% 30.21 in 10.0 mi SE 4.6 mph - N/A   Partly Cloudy
5:10 AM 21.2 °F 14.9 °F 14.0 °F 74% 30.23 in 10.0 mi East 4.6 mph - N/A   Scattered Clouds
5:30 AM 21.2 °F 13.6 °F 14.0 °F 74% 30.23 in 10.0 mi East 5.8 mph - N/A   Partly Cloudy
5:50 AM 21.2 °F 12.6 °F 14.0 °F 74% 30.21 in 10.0 mi East 6.9 mph - N/A   Partly Cloudy
6:10 AM 21.2 °F 12.6 °F 14.0 °F 74% 30.21 in 10.0 mi ESE 6.9 mph - N/A   Scattered Clouds
6:30 AM 21.2 °F 12.6 °F 14.0 °F 74% 30.21 in 10.0 mi SE 6.9 mph - N/A   Scattered Clouds
6:50 AM 19.4 °F 11.5 °F 14.0 °F 80% 30.20 in 10.0 mi ESE 5.8 mph - N/A   Partly Cloudy
7:10 AM 19.4 °F 9.5 °F 14.0 °F 80% 30.20 in 10.0 mi SSE 8.1 mph - N/A   Partly Cloudy
7:30 AM 19.4 °F 11.5 °F 14.0 °F 80% 30.20 in 10.0 mi ESE 5.8 mph - N/A   Partly Cloudy
7:50 AM 19.4 °F 11.5 °F 15.8 °F 86% 30.20 in 10.0 mi ENE 5.8 mph - N/A   Clear
8:10 AM 21.2 °F 13.6 °F 15.8 °F 80% 30.19 in 10.0 mi ESE 5.8 mph - N/A   Clear
8:30 AM 23.0 °F 13.1 °F 15.8 °F 74% 30.19 in 8.0 mi SE 9.2 mph - N/A   Clear
8:50 AM 24.8 °F 14.0 °F 17.6 °F 74% 30.19 in 10.0 mi SE 11.5 mph - N/A   Clear
9:10 AM 26.6 °F 16.2 °F 17.6 °F 69% 30.18 in 10.0 mi SSE 11.5 mph - N/A   Clear
9:30 AM 28.4 °F 18.5 °F 17.6 °F 64% 30.19 in 10.0 mi South 11.5 mph - N/A   Clear
9:50 AM 32.0 °F 24.8 °F 17.6 °F 55% 30.21 in 10.0 mi SSE 8.1 mph - N/A   Clear
10:15 AM 32.0 °F 25.6 °F 19.4 °F 60% 30.20 in 10.0 mi South 6.9 mph - N/A   Clear
10:30 AM 33.8 °F 27.0 °F 19.4 °F 56% 30.21 in 10.0 mi South 8.1 mph - N/A   Clear
10:50 AM 37.4 °F 32.1 °F 19.4 °F 48% 30.21 in 10.0 mi SSW 6.9 mph - N/A   Clear
11:10 AM 39.2 °F 34.2 °F 19.4 °F 45% 30.21 in 10.0 mi SW 6.9 mph - N/A   Clear
11:50 AM 42.8 °F 37.5 °F 21.2 °F 42% 30.20 in 10.0 mi South 9.2 mph - N/A   Clear
12:15 PM 46.4 °F 44.3 °F 23.0 °F 40% 30.18 in 10.0 mi South 4.6 mph - N/A   Clear
12:30 PM 46.4 °F 42.9 °F 23.0 °F 40% 30.17 in 10.0 mi South 6.9 mph - N/A   Clear
12:50 PM 48.2 °F - 23.0 °F 37% 30.15 in 10.0 mi Calm Calm - N/A   Clear
1:10 PM 48.2 °F - 23.0 °F 37% 30.15 in 10.0 mi Calm Calm - N/A   Clear
1:30 PM 50.0 °F - 24.8 °F 37% 30.14 in 10.0 mi SW 4.6 mph - N/A   Clear
1:50 PM 50.0 °F - 24.8 °F 37% 30.13 in 10.0 mi Calm Calm - N/A   Clear
2:10 PM 51.8 °F - 24.8 °F 35% 30.12 in 10.0 mi NNW 3.5 mph - N/A   Clear
2:30 PM 53.6 °F - 24.8 °F 33% 30.12 in 10.0 mi Calm Calm - N/A   Clear
2:50 PM 53.6 °F - 24.8 °F 33% 30.12 in 10.0 mi NE 3.5 mph - N/A   Clear
3:15 PM 53.6 °F - 24.8 °F 33% 30.13 in 10.0 mi NNE 6.9 mph - N/A   Clear
3:30 PM 53.6 °F - 24.8 °F 33% 30.13 in 10.0 mi NNE 11.5 mph - N/A   Clear
3:50 PM 51.8 °F - 24.8 °F 35% 30.14 in 10.0 mi NE 9.2 mph - N/A   Clear
4:10 PM 50.0 °F - 24.8 °F 37% 30.15 in 10.0 mi NNE 10.4 mph - N/A   Clear
4:30 PM 50.0 °F - 24.8 °F 37% 30.15 in 10.0 mi NNE 12.7 mph - N/A   Clear
4:50 PM 48.2 °F - 23.0 °F 37% 30.15 in 10.0 mi NNE 11.5 mph - N/A   Clear
5:10 PM 48.2 °F - 23.0 °F 37% 30.14 in 10.0 mi NE 9.2 mph - N/A   Clear
5:30 PM 44.6 °F 40.2 °F 23.0 °F 43% 30.15 in 10.0 mi NE 8.1 mph - N/A   Clear
5:50 PM 42.8 °F 37.5 °F 23.0 °F 46% 30.15 in 10.0 mi NE 9.2 mph - N/A   Clear
6:10 PM 41.0 °F 36.4 °F 23.0 °F 49% 30.15 in 10.0 mi NE 6.9 mph - N/A   Clear
6:30 PM 41.0 °F 38.0 °F 23.0 °F 49% 30.15 in 10.0 mi NE 4.6 mph - N/A   Clear
6:50 PM 37.4 °F 32.1 °F 23.0 °F 56% 30.16 in 10.0 mi NNE 6.9 mph - N/A   Partly Cloudy
7:10 PM 37.4 °F 32.1 °F 23.0 °F 56% 30.17 in 10.0 mi NNE 6.9 mph - N/A   Clear
7:30 PM 37.4 °F 33.8 °F 23.0 °F 56% 30.16 in 10.0 mi NNE 4.6 mph - N/A   Clear
7:50 PM 37.4 °F 32.1 °F 23.0 °F 56% 30.17 in 10.0 mi NNE 6.9 mph - N/A   Clear
9:30 PM 33.8 °F 25.3 °F 21.2 °F 60% 30.20 in 10.0 mi NNE 11.5 mph - N/A   Scattered Clouds
9:50 PM 35.6 °F 27.5 °F 21.2 °F 56% 30.21 in 10.0 mi NNE 11.5 mph - N/A   Scattered Clouds
10:10 PM 35.6 °F 28.0 °F 21.2 °F 56% 30.22 in 10.0 mi NNE 10.4 mph - N/A   Scattered Clouds
10:30 PM 33.8 °F 26.4 °F 21.2 °F 60% 30.22 in 10.0 mi NNE 9.2 mph - N/A   Partly Cloudy
10:50 PM 32.0 °F 25.6 °F 19.4 °F 60% 30.22 in 10.0 mi NNE 6.9 mph - N/A   Clear
11:10 PM 32.0 °F 27.5 °F 19.4 °F 60% 30.21 in 10.0 mi NNE 4.6 mph - N/A   Clear
11:30 PM 32.0 °F 26.4 °F 19.4 °F 60% 30.22 in 10.0 mi North 5.8 mph - N/A   Clear
11:50 PM 32.0 °F 25.6 °F 19.4 °F 60% 30.23 in 10.0 mi North 6.9 mph - N/A   Partly Cloudy